,,,PA_Meas_PMT16A,,PR_Meas_QMR101_102,,RH_Meas_QMH101,,SR_Meas_QMS101,,TA_Meas_QMH101,,GenWind,,GenWind,
date,time,status,PA,status,PR,status,RH,status,SR,status,TA,status,DirAvg,status,SpdAvg,
2013-01-25, 00:00:05,VALID,1010.85,VALID,0,VALID,104,VALID,0,VALID,24.4345,VALID,119,VALID,0,
2013-01-25, 00:01:05,VALID,1010.79,VALID,0,VALID,104,VALID,0,VALID,24.4345,VALID,119,VALID,0,
2013-01-25, 00:02:05,VALID,1010.8,VALID,0,VALID,104,VALID,0,VALID,24.3956,VALID,119,VALID,0,
2013-01-25, 00:03:05,VALID,1010.82,VALID,0,VALID,104,VALID,0,VALID,24.3956,VALID,119,VALID,0.258203,
2013-01-25, 00:04:05,VALID,1010.8,VALID,0,VALID,104,VALID,0,VALID,24.3566,VALID,119,VALID,0.207813,
2013-01-25, 00:05:05,VALID,1010.83,VALID,0,VALID,104,VALID,0,VALID,24.3371,VALID,119,VALID,0.195313,
2013-01-25, 00:06:05,VALID,1010.84,VALID,0,VALID,104,VALID,0,VALID,24.3371,VALID,119,VALID,0.182422,
2013-01-25, 00:07:05,VALID,1010.86,VALID,0,VALID,104,VALID,0,VALID,24.3566,VALID,119,VALID,0.134766,
2013-01-25, 00:08:05,VALID,1010.84,VALID,0,VALID,104,VALID,0,VALID,24.3566,VALID,119,VALID,0.110156,
2013-01-25, 00:09:05,VALID,1010.84,VALID,0,VALID,104,VALID,0,VALID,24.3566,VALID,119,VALID,0.130859,
2013-01-25, 00:10:05,VALID,1010.85,VALID,0,VALID,104,VALID,0,VALID,24.3566,VALID,119,VALID,0,
2013-01-25, 00:11:05,VALID,1010.82,VALID,0,VALID,104,VALID,0,VALID,24.3547,VALID,119,VALID,0,
2013-01-25, 00:12:05,VALID,1010.81,VALID,0,VALID,104,VALID,0,VALID,24.3176,VALID,119,VALID,0,
2013-01-25, 00:13:05,VALID,1010.79,VALID,0,VALID,104,VALID,0,VALID,24.3371,VALID,119,VALID,0,
2013-01-25, 00:14:05,VALID,1010.78,VALID,0,VALID,104,VALID,0,VALID,24.3371,VALID,119,VALID,0,
2013-01-25, 00:15:05,VALID,1010.8,VALID,0,VALID,104,VALID,0,VALID,24.3566,VALID,119,VALID,0,
2013-01-25, 00:16:05,VALID,1010.78,VALID,0,VALID,104,VALID,0,VALID,24.3176,VALID,119,VALID,0,
2013-01-25, 00:17:05,VALID,1010.79,VALID,0,VALID,104,VALID,0,VALID,24.3176,VALID,119,VALID,0,
2013-01-25, 00:18:05,VALID,1010.79,VALID,0,VALID,104,VALID,0,VALID,24.3176,VALID,119,VALID,0,
2013-01-25, 00:19:05,VALID,1010.78,VALID,0,VALID,104,VALID,0,VALID,24.3566,VALID,119,VALID,0,
2013-01-25, 00:20:05,VALID,1010.76,VALID,0,VALID,104,VALID,0,VALID,24.3176,VALID,119,VALID,0.174219,
2013-01-25, 00:21:05,VALID,1010.74,VALID,0,VALID,104,VALID,0,VALID,24.2786,VALID,119,VALID,0.344531,
2013-01-25, 00:22:05,VALID,1010.73,VALID,0,VALID,104,VALID,0,VALID,24.2378,VALID,119,VALID,0.325781,
2013-01-25, 00:23:05,VALID,1010.73,VALID,0,VALID,104,VALID,0,VALID,24.2396,VALID,119,VALID,0.235938,
2013-01-25, 00:24:05,VALID,1010.71,VALID,0,VALID,104,VALID,0,VALID,24.2591,VALID,119,VALID,0.191797,
2013-01-25, 00:25:05,VALID,1010.7,VALID,0,VALID,104,VALID,0,VALID,24.2591,VALID,119,VALID,0.236719,
2013-01-25, 00:26:05,VALID,1010.7,VALID,0,VALID,104,VALID,0,VALID,24.2007,VALID,119,VALID,0.342969,
2013-01-25, 00:27:05,VALID,1010.68,VALID,0,VALID,104,VALID,0,VALID,24.2396,VALID,119,VALID,0.385547,
2013-01-25, 00:28:05,VALID,1010.68,VALID,0,VALID,104,VALID,0,VALID,24.1988,VALID,119,VALID,0.410156,
2013-01-25, 00:29:05,VALID,1010.65,VALID,0,VALID,104,VALID,0,VALID,24.2007,VALID,119,VALID,0.444141,
2013-01-25, 00:30:05,VALID,1010.63,VALID,0,VALID,104,VALID,0,VALID,24.1812,VALID,119,VALID,0.337891,
2013-01-25, 00:31:05,VALID,1010.6,VALID,0,VALID,104,VALID,0,VALID,24.1617,VALID,119,VALID,0.351172,
2013-01-25, 00:32:05,VALID,1010.55,VALID,0,VALID,104,VALID,0,VALID,24.1209,VALID,119,VALID,0.275781,
2013-01-25, 00:33:05,VALID,1010.53,VALID,0,VALID,104,VALID,0.112112,VALID,24.1032,VALID,119,VALID,0.180469,
2013-01-25, 00:34:05,VALID,1010.54,VALID,0,VALID,104,VALID,0,VALID,24.1227,VALID,119,VALID,0.251172,
2013-01-25, 00:35:05,VALID,1010.5,VALID,0,VALID,104,VALID,0,VALID,24.0837,VALID,119,VALID,0.287109,
2013-01-25, 00:36:05,VALID,1010.48,VALID,0,VALID,104,VALID,0,VALID,24.004,VALID,119,VALID,0.214453,
2013-01-25, 00:37:05,VALID,1010.44,VALID,0,VALID,104,VALID,0,VALID,24.0448,VALID,119,VALID,0.0859375,
2013-01-25, 00:38:05,VALID,1010.44,VALID,0,VALID,104,VALID,0.112112,VALID,23.9845,VALID,119,VALID,0,
2013-01-25, 00:39:05,VALID,1010.44,VALID,0,VALID,104,VALID,0.112112,VALID,23.926,VALID,119,VALID,0,
2013-01-25, 00:40:05,VALID,1010.42,VALID,0,VALID,104,VALID,0,VALID,23.9668,VALID,119,VALID,0,
2013-01-25, 00:41:05,VALID,1010.38,VALID,0,VALID,104,VALID,0,VALID,23.965,VALID,118,VALID,0,
2013-01-25, 00:42:05,VALID,1010.39,VALID,0,VALID,104,VALID,0,VALID,23.9668,VALID,119,VALID,0,
2013-01-25, 00:43:05,VALID,1010.38,VALID,0,VALID,104,VALID,0,VALID,23.9473,VALID,119,VALID,0,
2013-01-25, 00:44:05,VALID,1010.36,VALID,0,VALID,104,VALID,0,VALID,23.9473,VALID,119,VALID,0,
2013-01-25, 00:45:05,VALID,1010.33,VALID,0,VALID,104,VALID,0,VALID,23.8499,VALID,119,VALID,0,
2013-01-25, 00:46:05,VALID,1010.33,VALID,0,VALID,104,VALID,0.112112,VALID,23.9473,VALID,119,VALID,0,
2013-01-25, 00:47:05,VALID,1010.34,VALID,0,VALID,104,VALID,0,VALID,23.9278,VALID,119,VALID,0,
2013-01-25, 00:48:05,VALID,1010.32,VALID,0,VALID,104,VALID,0,VALID,23.8871,VALID,119,VALID,0,
2013-01-25, 00:49:05,VALID,1010.3,VALID,0,VALID,104,VALID,0,VALID,23.9084,VALID,119,VALID,0,
2013-01-25, 00:50:05,VALID,1010.27,VALID,0,VALID,104,VALID,0,VALID,23.8889,VALID,119,VALID,0,
2013-01-25, 00:51:05,VALID,1010.27,VALID,0,VALID,104,VALID,0,VALID,23.9084,VALID,119,VALID,0.205078,
2013-01-25, 00:52:05,VALID,1010.24,VALID,0,VALID,104,VALID,0,VALID,23.8889,VALID,119,VALID,0.31875,
2013-01-25, 00:53:05,VALID,1010.22,VALID,0,VALID,104,VALID,0,VALID,23.8694,VALID,119,VALID,0.292188,
2013-01-25, 00:54:05,VALID,1010.21,VALID,0,VALID,104,VALID,0,VALID,23.8889,VALID,119,VALID,0.295312,
2013-01-25, 00:55:05,VALID,1010.22,VALID,0,VALID,104,VALID,0,VALID,23.8694,VALID,119,VALID,0.2625,
2013-01-25, 00:56:05,VALID,1010.2,VALID,0,VALID,104,VALID,0.112112,VALID,23.8889,VALID,119,VALID,0.325391,
2013-01-25, 00:57:05,VALID,1010.18,VALID,0,VALID,104,VALID,0,VALID,23.8694,VALID,119,VALID,0.25625,
2013-01-25, 00:58:05,VALID,1010.16,VALID,0,VALID,104,VALID,0,VALID,23.8499,VALID,119,VALID,0.2125,
2013-01-25, 00:59:05,VALID,1010.15,VALID,0,VALID,104,VALID,0,VALID,23.8499,VALID,119,VALID,0.157813,
2013-01-25, 01:00:05,VALID,1010.14,VALID,0,VALID,104,VALID,0,VALID,23.8499,VALID,119,VALID,0.219922,
2013-01-25, 01:01:05,VALID,1010.12,VALID,0,VALID,104,VALID,0,VALID,23.8109,VALID,119,VALID,0.204297,
2013-01-25, 01:02:05,VALID,1010.13,VALID,0,VALID,104,VALID,0,VALID,23.7701,VALID,119,VALID,0,
2013-01-25, 01:03:05,VALID,1010.13,VALID,0,VALID,104,VALID,0,VALID,23.772,VALID,119,VALID,0,
2013-01-25, 01:04:05,VALID,1010.13,VALID,0,VALID,104,VALID,0,VALID,23.772,VALID,119,VALID,0,
2013-01-25, 01:05:05,VALID,1010.13,VALID,0,VALID,104,VALID,0,VALID,23.7525,VALID,119,VALID,0,
2013-01-25, 01:06:05,VALID,1010.12,VALID,0,VALID,104,VALID,0,VALID,23.733,VALID,119,VALID,0,
2013-01-25, 01:07:05,VALID,1010.1,VALID,0,VALID,104,VALID,0,VALID,23.7135,VALID,119,VALID,0,
2013-01-25, 01:08:05,VALID,1010.09,VALID,0,VALID,104,VALID,0,VALID,23.733,VALID,119,VALID,0.145313,
2013-01-25, 01:09:05,VALID,1010.06,VALID,0,VALID,104,VALID,0,VALID,23.694,VALID,119,VALID,0.148047,
2013-01-25, 01:10:05,VALID,1010.06,VALID,0,VALID,104,VALID,0,VALID,23.694,VALID,119,VALID,0.0648438,
2013-01-25, 01:11:05,VALID,1010.08,VALID,0,VALID,104,VALID,0,VALID,23.694,VALID,119,VALID,0.180469,
2013-01-25, 01:12:05,VALID,1010.07,VALID,0,VALID,104,VALID,0,VALID,23.7135,VALID,119,VALID,0.352344,
2013-01-25, 01:13:05,VALID,1010.05,VALID,0,VALID,104,VALID,0,VALID,23.7117,VALID,119,VALID,0.378125,
2013-01-25, 01:14:05,VALID,1010.05,VALID,0,VALID,104,VALID,0,VALID,23.733,VALID,119,VALID,0.14375,
2013-01-25, 01:15:05,VALID,1010.03,VALID,0,VALID,104,VALID,0,VALID,23.733,VALID,119,VALID,0,
2013-01-25, 01:16:05,VALID,1010.05,VALID,0,VALID,104,VALID,0,VALID,23.7135,VALID,119,VALID,0,
2013-01-25, 01:17:05,VALID,1010.02,VALID,0,VALID,104,VALID,0,VALID,23.694,VALID,119,VALID,0,
2013-01-25, 01:18:05,VALID,1010.04,VALID,0,VALID,104,VALID,0,VALID,23.733,VALID,119,VALID,0,
2013-01-25, 01:19:05,VALID,1010.01,VALID,0,VALID,104,VALID,0,VALID,23.655,VALID,119,VALID,0,
2013-01-25, 01:20:05,VALID,1010,VALID,0,VALID,104,VALID,0,VALID,23.655,VALID,119,VALID,0,
2013-01-25, 01:21:05,VALID,1010.02,VALID,0,VALID,104,VALID,0,VALID,23.733,VALID,119,VALID,0,
2013-01-25, 01:22:05,VALID,1010.02,VALID,0,VALID,104,VALID,0,VALID,23.694,VALID,119,VALID,0,
2013-01-25, 01:23:05,VALID,1010.03,VALID,0,VALID,104,VALID,0,VALID,23.6745,VALID,119,VALID,0,
2013-01-25, 01:24:05,VALID,1010.03,VALID,0,VALID,104,VALID,0,VALID,23.6745,VALID,119,VALID,0,
2013-01-25, 01:25:05,VALID,1010.02,VALID,0,VALID,104,VALID,0,VALID,23.6727,VALID,119,VALID,0,
2013-01-25, 01:26:05,VALID,1009.99,VALID,0,VALID,104,VALID,0,VALID,23.694,VALID,119,VALID,0,
2013-01-25, 01:27:05,VALID,1009.99,VALID,0,VALID,104,VALID,0,VALID,23.694,VALID,119,VALID,0,
2013-01-25, 01:28:05,VALID,1009.96,VALID,0,VALID,104,VALID,0,VALID,23.694,VALID,119,VALID,0,
2013-01-25, 01:29:05,VALID,1009.93,VALID,0,VALID,104,VALID,0,VALID,23.694,VALID,119,VALID,0.273047,
2013-01-25, 01:30:05,VALID,1009.91,VALID,0,VALID,104,VALID,0,VALID,23.6745,VALID,119,VALID,0.377734,
2013-01-25, 01:31:05,VALID,1009.92,VALID,0,VALID,104,VALID,0,VALID,23.6745,VALID,119,VALID,0.302734,
2013-01-25, 01:32:05,VALID,1009.9,VALID,0,VALID,104,VALID,0,VALID,23.6338,VALID,119,VALID,0.26875,
2013-01-25, 01:33:05,VALID,1009.91,VALID,0,VALID,104,VALID,0,VALID,23.655,VALID,119,VALID,0.0308594,
2013-01-25, 01:34:05,VALID,1009.89,VALID,0,VALID,104,VALID,0,VALID,23.6143,VALID,119,VALID,0,
2013-01-25, 01:35:05,VALID,1009.88,VALID,0,VALID,104,VALID,0,VALID,23.6161,VALID,119,VALID,0,
2013-01-25, 01:36:05,VALID,1009.87,VALID,0,VALID,104,VALID,0,VALID,23.5771,VALID,119,VALID,0,
2013-01-25, 01:37:05,VALID,1009.88,VALID,0,VALID,104,VALID,0,VALID,23.5771,VALID,119,VALID,0,
2013-01-25, 01:38:05,VALID,1009.9,VALID,0,VALID,104,VALID,0,VALID,23.5771,VALID,119,VALID,0.015625,
2013-01-25, 01:39:05,VALID,1009.86,VALID,0,VALID,104,VALID,0,VALID,23.5966,VALID,119,VALID,0.212891,
2013-01-25, 01:40:05,VALID,1009.89,VALID,0,VALID,104,VALID,0,VALID,23.5966,VALID,119,VALID,0.132422,
2013-01-25, 01:41:05,VALID,1009.89,VALID,0,VALID,104,VALID,0,VALID,23.5966,VALID,119,VALID,0.126563,
2013-01-25, 01:42:05,VALID,1009.88,VALID,0,VALID,104,VALID,0,VALID,23.5753,VALID,119,VALID,0.196484,
2013-01-25, 01:43:05,VALID,1009.9,VALID,0,VALID,104,VALID,0,VALID,23.5771,VALID,119,VALID,0.136719,
2013-01-25, 01:44:05,VALID,1009.91,VALID,0,VALID,104,VALID,0,VALID,23.5381,VALID,119,VALID,0.175391,
2013-01-25, 01:45:05,VALID,1009.91,VALID,0,VALID,104,VALID,0,VALID,23.6356,VALID,119,VALID,0.248828,
2013-01-25, 01:46:05,VALID,1009.91,VALID,0,VALID,104,VALID,0,VALID,23.6338,VALID,119,VALID,0.163672,
2013-01-25, 01:47:05,VALID,1009.94,VALID,0,VALID,104,VALID,0,VALID,23.6745,VALID,119,VALID,0.132031,
2013-01-25, 01:48:05,VALID,1009.91,VALID,0,VALID,104,VALID,0,VALID,23.6745,VALID,119,VALID,0.0398437,
2013-01-25, 01:49:05,VALID,1009.89,VALID,0,VALID,104,VALID,0,VALID,23.655,VALID,119,VALID,0,
2013-01-25, 01:50:05,VALID,1009.91,VALID,0,VALID,104,VALID,0,VALID,23.6356,VALID,119,VALID,0.0183594,
2013-01-25, 01:51:05,VALID,1009.92,VALID,0,VALID,104,VALID,0,VALID,23.655,VALID,119,VALID,0.319922,
2013-01-25, 01:52:05,VALID,1009.91,VALID,0,VALID,104,VALID,0,VALID,23.6745,VALID,119,VALID,0.250391,
2013-01-25, 01:53:05,VALID,1009.87,VALID,0,VALID,104,VALID,0,VALID,23.6745,VALID,119,VALID,0.308203,
2013-01-25, 01:54:05,VALID,1009.9,VALID,0,VALID,104,VALID,0,VALID,23.6143,VALID,119,VALID,0.271484,
2013-01-25, 01:55:05,VALID,1009.9,VALID,0,VALID,104,VALID,0,VALID,23.6161,VALID,119,VALID,0.182812,
2013-01-25, 01:56:05,VALID,1009.86,VALID,0,VALID,104,VALID,0,VALID,23.5966,VALID,119,VALID,0,
2013-01-25, 01:57:05,VALID,1009.86,VALID,0,VALID,104,VALID,0,VALID,23.5771,VALID,119,VALID,0,
2013-01-25, 01:58:05,VALID,1009.88,VALID,0,VALID,104,VALID,0,VALID,23.5381,VALID,119,VALID,0,
2013-01-25, 01:59:05,VALID,1009.88,VALID,0,VALID,104,VALID,0,VALID,23.5169,VALID,119,VALID,0,
2013-01-25, 02:00:05,VALID,1009.87,VALID,0,VALID,104,VALID,0,VALID,23.5186,VALID,119,VALID,0,
2013-01-25, 02:01:05,VALID,1009.89,VALID,0,VALID,104,VALID,0,VALID,23.4992,VALID,119,VALID,0,
2013-01-25, 02:02:05,VALID,1009.87,VALID,0,VALID,104,VALID,0,VALID,23.5186,VALID,119,VALID,0,
2013-01-25, 02:03:05,VALID,1009.88,VALID,0,VALID,104,VALID,0,VALID,23.4992,VALID,119,VALID,0,
2013-01-25, 02:04:05,VALID,1009.9,VALID,0,VALID,104,VALID,0,VALID,23.4602,VALID,119,VALID,0,
2013-01-25, 02:05:05,VALID,1009.88,VALID,0,VALID,104,VALID,0,VALID,23.4602,VALID,119,VALID,0,
2013-01-25, 02:06:05,VALID,1009.87,VALID,0,VALID,104,VALID,0,VALID,23.4602,VALID,119,VALID,0,
2013-01-25, 02:07:05,VALID,1009.91,VALID,0,VALID,104,VALID,0,VALID,23.4602,VALID,119,VALID,0,
2013-01-25, 02:08:05,VALID,1009.92,VALID,0,VALID,104,VALID,0,VALID,23.4407,VALID,119,VALID,0,
2013-01-25, 02:09:05,VALID,1009.92,VALID,0,VALID,104,VALID,0,VALID,23.4212,VALID,119,VALID,0,
2013-01-25, 02:10:05,VALID,1009.92,VALID,0,VALID,104,VALID,0,VALID,23.4407,VALID,119,VALID,0,
2013-01-25, 02:11:05,VALID,1009.92,VALID,0,VALID,104,VALID,0,VALID,23.4602,VALID,119,VALID,0,
2013-01-25, 02:12:05,VALID,1009.92,VALID,0,VALID,104,VALID,0,VALID,23.4407,VALID,119,VALID,0.0378906,
2013-01-25, 02:13:05,VALID,1009.92,VALID,0,VALID,104,VALID,0,VALID,23.4212,VALID,119,VALID,0.175,
2013-01-25, 02:14:04,VALID,1009.95,VALID,0,VALID,104,VALID,0,VALID,23.361,VALID,119,VALID,0.03125,
2013-01-25, 02:15:04,VALID,1009.93,VALID,0,VALID,104,VALID,0,VALID,23.3823,VALID,119,VALID,0.0410156,
2013-01-25, 02:16:04,VALID,1009.94,VALID,0,VALID,104,VALID,0,VALID,23.3805,VALID,119,VALID,0.204297,
2013-01-25, 02:17:04,VALID,1009.96,VALID,0,VALID,104,VALID,0,VALID,23.4602,VALID,119,VALID,0.19375,
2013-01-25, 02:18:04,VALID,1009.97,VALID,0,VALID,104,VALID,0,VALID,23.4602,VALID,119,VALID,0.125,
2013-01-25, 02:19:04,VALID,1009.96,VALID,0,VALID,104,VALID,0,VALID,23.4389,VALID,119,VALID,0,
2013-01-25, 02:20:04,VALID,1009.98,VALID,0,VALID,104,VALID,0,VALID,23.4992,VALID,119,VALID,0,
2013-01-25, 02:21:04,VALID,1010.01,VALID,0,VALID,104,VALID,0,VALID,23.4389,VALID,119,VALID,0,
2013-01-25, 02:22:04,VALID,1009.97,VALID,0,VALID,104,VALID,0,VALID,23.4017,VALID,119,VALID,0,
2013-01-25, 02:23:04,VALID,1009.99,VALID,0,VALID,104,VALID,0,VALID,23.322,VALID,119,VALID,0,
2013-01-25, 02:24:04,VALID,1010,VALID,0,VALID,104,VALID,0,VALID,23.2848,VALID,119,VALID,0,
2013-01-25, 02:25:04,VALID,1009.97,VALID,0,VALID,104,VALID,0,VALID,23.2848,VALID,119,VALID,0,
2013-01-25, 02:26:04,VALID,1009.96,VALID,0,VALID,104,VALID,0,VALID,23.2441,VALID,119,VALID,0,
2013-01-25, 02:27:04,VALID,1009.94,VALID,0,VALID,104,VALID,0,VALID,23.1874,VALID,119,VALID,0,
2013-01-25, 02:28:04,VALID,1009.93,VALID,0,VALID,104,VALID,0,VALID,23.1679,VALID,119,VALID,0,
2013-01-25, 02:29:04,VALID,1009.94,VALID,0,VALID,104,VALID,0,VALID,23.1874,VALID,119,VALID,0,
2013-01-25, 02:30:04,VALID,1009.91,VALID,0,VALID,104,VALID,0,VALID,23.1874,VALID,119,VALID,0,
2013-01-25, 02:31:04,VALID,1009.92,VALID,0,VALID,104,VALID,0,VALID,23.1485,VALID,119,VALID,0,
2013-01-25, 02:32:04,VALID,1009.9,VALID,0,VALID,104,VALID,0,VALID,23.1095,VALID,119,VALID,0,
2013-01-25, 02:33:04,VALID,1009.9,VALID,0,VALID,104,VALID,0,VALID,23.1485,VALID,119,VALID,0,
2013-01-25, 02:34:04,VALID,1009.91,VALID,0,VALID,104,VALID,0,VALID,23.129,VALID,119,VALID,0,
2013-01-25, 02:35:04,VALID,1009.88,VALID,0,VALID,104,VALID,0,VALID,23.129,VALID,119,VALID,0.0160156,
2013-01-25, 02:36:04,VALID,1009.91,VALID,0,VALID,104,VALID,0,VALID,23.1077,VALID,119,VALID,0.210938,
2013-01-25, 02:37:04,VALID,1009.9,VALID,0,VALID,104,VALID,0,VALID,23.1095,VALID,119,VALID,0.272656,
2013-01-25, 02:38:04,VALID,1009.91,VALID,0,VALID,104,VALID,0,VALID,23.1095,VALID,119,VALID,0.123438,
2013-01-25, 02:39:04,VALID,1009.92,VALID,0,VALID,104,VALID,0,VALID,23.0511,VALID,119,VALID,0,
2013-01-25, 02:40:04,VALID,1009.9,VALID,0,VALID,104,VALID,0,VALID,23.0511,VALID,119,VALID,0,
2013-01-25, 02:41:04,VALID,1009.92,VALID,0,VALID,104,VALID,0,VALID,23.09,VALID,119,VALID,0,
2013-01-25, 02:42:04,VALID,1009.94,VALID,0,VALID,104,VALID,0,VALID,23.1095,VALID,119,VALID,0,
2013-01-25, 02:43:04,VALID,1009.93,VALID,0,VALID,104,VALID,0,VALID,23.1095,VALID,119,VALID,0,
2013-01-25, 02:44:04,VALID,1009.97,VALID,0,VALID,104,VALID,0,VALID,23.129,VALID,119,VALID,0,
2013-01-25, 02:45:04,VALID,1009.97,VALID,0,VALID,104,VALID,0,VALID,23.129,VALID,119,VALID,0,
2013-01-25, 02:46:04,VALID,1009.95,VALID,0,VALID,104,VALID,0,VALID,23.129,VALID,119,VALID,0,
2013-01-25, 02:47:04,VALID,1009.97,VALID,0,VALID,104,VALID,0,VALID,23.1272,VALID,119,VALID,0,
2013-01-25, 02:48:04,VALID,1009.96,VALID,0,VALID,104,VALID,0,VALID,23.1485,VALID,119,VALID,0,
2013-01-25, 02:49:04,VALID,1009.95,VALID,0,VALID,104,VALID,0,VALID,23.1485,VALID,119,VALID,0,
2013-01-25, 02:50:04,VALID,1009.93,VALID,0,VALID,104,VALID,0,VALID,23.1095,VALID,119,VALID,0,
2013-01-25, 02:51:04,VALID,1009.93,VALID,0,VALID,104,VALID,0,VALID,23.09,VALID,119,VALID,0,
2013-01-25, 02:52:04,VALID,1009.93,VALID,0,VALID,104,VALID,0,VALID,23.0705,VALID,119,VALID,0,
2013-01-25, 02:53:04,VALID,1009.95,VALID,0,VALID,104,VALID,0,VALID,23.09,VALID,119,VALID,0,
2013-01-25, 02:54:04,VALID,1009.95,VALID,0,VALID,104,VALID,0,VALID,23.09,VALID,119,VALID,0,
2013-01-25, 02:55:04,VALID,1009.95,VALID,0,VALID,104,VALID,0,VALID,23.129,VALID,119,VALID,0,
2013-01-25, 02:56:04,VALID,1009.95,VALID,0,VALID,104,VALID,0,VALID,23.1095,VALID,119,VALID,0,
2013-01-25, 02:57:04,VALID,1009.93,VALID,0,VALID,104,VALID,0,VALID,23.1095,VALID,119,VALID,0,
2013-01-25, 02:58:04,VALID,1009.94,VALID,0,VALID,104,VALID,0,VALID,23.1697,VALID,119,VALID,0.288281,
2013-01-25, 02:59:04,VALID,1009.92,VALID,0,VALID,104,VALID,0,VALID,23.1485,VALID,119,VALID,0.251563,
2013-01-25, 03:00:04,VALID,1009.89,VALID,0,VALID,104,VALID,0,VALID,23.1485,VALID,119,VALID,0.258203,
2013-01-25, 03:01:04,VALID,1009.92,VALID,0,VALID,104,VALID,0,VALID,23.2069,VALID,119,VALID,0.241406,
2013-01-25, 03:02:04,VALID,1009.89,VALID,0,VALID,104,VALID,0,VALID,23.2069,VALID,119,VALID,0.0859375,
2013-01-25, 03:03:04,VALID,1009.87,VALID,0,VALID,104,VALID,0,VALID,23.2848,VALID,119,VALID,0.0894531,
2013-01-25, 03:04:04,VALID,1009.89,VALID,0,VALID,104,VALID,0,VALID,23.3238,VALID,119,VALID,0.14375,
2013-01-25, 03:05:04,VALID,1009.86,VALID,0,VALID,104,VALID,0,VALID,23.2848,VALID,119,VALID,0.174609,
2013-01-25, 03:06:04,VALID,1009.87,VALID,0,VALID,104,VALID,0,VALID,23.2848,VALID,119,VALID,0.334766,
2013-01-25, 03:07:04,VALID,1009.87,VALID,0,VALID,104,VALID,0,VALID,23.3433,VALID,119,VALID,0.404687,
2013-01-25, 03:08:04,VALID,1009.89,VALID,0,VALID,104,VALID,0,VALID,23.3415,VALID,119,VALID,0.4875,
2013-01-25, 03:09:04,VALID,1009.88,VALID,0,VALID,104,VALID,0,VALID,23.3628,VALID,119,VALID,0.554688,
2013-01-25, 03:10:04,VALID,1009.87,VALID,0,VALID,104,VALID,0,VALID,23.3628,VALID,119,VALID,0.442578,
2013-01-25, 03:11:04,VALID,1009.88,VALID,0,VALID,104,VALID,0,VALID,23.3026,VALID,119,VALID,0.316797,
2013-01-25, 03:12:04,VALID,1009.86,VALID,0,VALID,104,VALID,0,VALID,23.322,VALID,119,VALID,0.296875,
2013-01-25, 03:13:04,VALID,1009.87,VALID,0,VALID,104,VALID,0,VALID,23.3026,VALID,119,VALID,0.239844,
2013-01-25, 03:14:04,VALID,1009.86,VALID,0,VALID,104,VALID,0,VALID,23.3823,VALID,119,VALID,0.202344,
2013-01-25, 03:15:04,VALID,1009.89,VALID,0,VALID,104,VALID,0,VALID,23.3415,VALID,119,VALID,0.351563,
2013-01-25, 03:16:04,VALID,1009.89,VALID,0,VALID,104,VALID,0,VALID,23.4017,VALID,119,VALID,0.244141,
2013-01-25, 03:17:04,VALID,1009.89,VALID,0,VALID,104,VALID,0,VALID,23.4602,VALID,123,VALID,0.476172,
2013-01-25, 03:18:04,VALID,1009.88,VALID,0,VALID,104,VALID,0,VALID,23.4602,VALID,123,VALID,0.307422,
2013-01-25, 03:19:04,VALID,1009.89,VALID,0,VALID,104,VALID,0,VALID,23.4797,VALID,123,VALID,0.124609,
2013-01-25, 03:20:04,VALID,1009.9,VALID,0,VALID,104,VALID,0,VALID,23.4992,VALID,123,VALID,0.0863281,
2013-01-25, 03:21:04,VALID,1009.88,VALID,0,VALID,104,VALID,0,VALID,23.4797,VALID,123,VALID,0.0753906,
2013-01-25, 03:22:04,VALID,1009.89,VALID,0,VALID,104,VALID,0,VALID,23.5381,VALID,123,VALID,0,
2013-01-25, 03:23:04,VALID,1009.89,VALID,0,VALID,104,VALID,0,VALID,23.5186,VALID,123,VALID,0,
2013-01-25, 03:24:04,VALID,1009.9,VALID,0,VALID,104,VALID,0,VALID,23.5186,VALID,123,VALID,0,
2013-01-25, 03:25:04,VALID,1009.89,VALID,0,VALID,104,VALID,0,VALID,23.5186,VALID,123,VALID,0.0140625,
2013-01-25, 03:26:04,VALID,1009.88,VALID,0,VALID,104,VALID,0,VALID,23.5381,VALID,123,VALID,0.158984,
2013-01-25, 03:27:04,VALID,1009.89,VALID,0,VALID,104,VALID,0,VALID,23.5558,VALID,123,VALID,0.0480469,
2013-01-25, 03:28:04,VALID,1009.89,VALID,0,VALID,104,VALID,0,VALID,23.5576,VALID,123,VALID,0.028125,
2013-01-25, 03:29:04,VALID,1009.88,VALID,0,VALID,104,VALID,0,VALID,23.5186,VALID,123,VALID,0,
2013-01-25, 03:30:04,VALID,1009.91,VALID,0,VALID,104,VALID,0,VALID,23.5381,VALID,123,VALID,0,
2013-01-25, 03:31:04,VALID,1009.9,VALID,0,VALID,104,VALID,0,VALID,23.5186,VALID,123,VALID,0,
2013-01-25, 03:32:04,VALID,1009.91,VALID,0,VALID,104,VALID,0,VALID,23.4992,VALID,123,VALID,0,
2013-01-25, 03:33:04,VALID,1009.93,VALID,0,VALID,104,VALID,0,VALID,23.4797,VALID,123,VALID,0,
2013-01-25, 03:34:04,VALID,1009.96,VALID,0,VALID,104,VALID,0,VALID,23.4017,VALID,124,VALID,0,
2013-01-25, 03:35:04,VALID,1009.96,VALID,0,VALID,104,VALID,0,VALID,23.3805,VALID,123,VALID,0,
2013-01-25, 03:36:04,VALID,1009.96,VALID,0,VALID,104,VALID,0,VALID,23.3238,VALID,123,VALID,0,
2013-01-25, 03:37:04,VALID,1009.95,VALID,0,VALID,104,VALID,0,VALID,23.2459,VALID,123,VALID,0,
2013-01-25, 03:38:04,VALID,1009.96,VALID,0,VALID,104,VALID,0,VALID,23.1874,VALID,123,VALID,0,
2013-01-25, 03:39:04,VALID,1009.97,VALID,0,VALID,104,VALID,0,VALID,23.1077,VALID,123,VALID,0,
2013-01-25, 03:40:04,VALID,1009.99,VALID,0,VALID,104,VALID,0,VALID,23.1485,VALID,123,VALID,0,
2013-01-25, 03:41:04,VALID,1010,VALID,0,VALID,104,VALID,0,VALID,23.1485,VALID,123,VALID,0,
2013-01-25, 03:42:04,VALID,1010.01,VALID,0,VALID,104,VALID,0,VALID,23.129,VALID,123,VALID,0,
2013-01-25, 03:43:04,VALID,1009.99,VALID,0,VALID,104,VALID,0,VALID,23.1272,VALID,123,VALID,0.114453,
2013-01-25, 03:44:04,VALID,1010.01,VALID,0,VALID,104,VALID,0,VALID,23.0511,VALID,123,VALID,0.125,
2013-01-25, 03:45:04,VALID,1010.01,VALID,0,VALID,104,VALID,0,VALID,23.0316,VALID,123,VALID,0.179688,
2013-01-25, 03:46:04,VALID,1010.01,VALID,0,VALID,104,VALID,0,VALID,23.0316,VALID,123,VALID,0.167187,
2013-01-25, 03:47:04,VALID,1010,VALID,0,VALID,104,VALID,0,VALID,23.0511,VALID,123,VALID,0.0839844,
2013-01-25, 03:48:04,VALID,1010.03,VALID,0,VALID,104,VALID,0,VALID,23.0511,VALID,123,VALID,0.0121094,
2013-01-25, 03:49:04,VALID,1010.02,VALID,0,VALID,104,VALID,0,VALID,23.0511,VALID,124,VALID,0,
2013-01-25, 03:50:04,VALID,1010.05,VALID,0,VALID,104,VALID,0,VALID,23.0511,VALID,123,VALID,0,
2013-01-25, 03:51:04,VALID,1010.02,VALID,0,VALID,104,VALID,0,VALID,23.0316,VALID,123,VALID,0,
2013-01-25, 03:52:04,VALID,1010.05,VALID,0,VALID,104,VALID,0,VALID,23.0316,VALID,123,VALID,0,
2013-01-25, 03:53:04,VALID,1010.05,VALID,0,VALID,104,VALID,0,VALID,23.0511,VALID,123,VALID,0,
2013-01-25, 03:54:04,VALID,1010.06,VALID,0,VALID,104,VALID,0,VALID,23.0511,VALID,123,VALID,0,
2013-01-25, 03:55:04,VALID,1010.04,VALID,0,VALID,104,VALID,0,VALID,23.0511,VALID,123,VALID,0,
2013-01-25, 03:56:04,VALID,1010.06,VALID,0,VALID,104,VALID,0,VALID,23.0316,VALID,123,VALID,0,
2013-01-25, 03:57:04,VALID,1010.08,VALID,0,VALID,104,VALID,0,VALID,22.9714,VALID,123,VALID,0,
2013-01-25, 03:58:04,VALID,1010.08,VALID,0,VALID,104,VALID,0,VALID,22.9536,VALID,123,VALID,0,
2013-01-25, 03:59:04,VALID,1010.09,VALID,0,VALID,104,VALID,0,VALID,22.9536,VALID,123,VALID,0,
2013-01-25, 04:00:04,VALID,1010.1,VALID,0,VALID,104,VALID,0,VALID,22.8757,VALID,123,VALID,0,
2013-01-25, 04:01:04,VALID,1010.08,VALID,0,VALID,104,VALID,0,VALID,22.8562,VALID,123,VALID,0,